Time,TemperatureF,DewpointF,PressureIn,WindDirection,WindDirectionDegrees,WindSpeedMPH,WindSpeedGustMPH,Humidity,HourlyPrecipIn,Conditions,Clouds,dailyrainin,SoftwareType,DateUTC
2013-05-01 00:01:00,51.1,46.7,30.22,NE,44,0.0,0.0,85,0.00,RA,BKN,0.00,WeatherDisplay:10.37,2013-05-01 04:01:00,
2013-05-01 00:02:00,51.1,46.7,30.22,NE,44,0.0,0.0,85,0.00,RA,BKN,0.00,WeatherDisplay:10.37,2013-05-01 04:02:00,
2013-05-01 00:04:00,51.1,46.7,30.22,NE,44,0.0,0.0,85,0.00,RA,BKN,0.00,WeatherDisplay:10.37,2013-05-01 04:04:00,
2013-05-01 00:07:00,51.0,46.6,30.22,NE,44,0.0,0.0,85,0.00,RA,BKN,0.00,WeatherDisplay:10.37,2013-05-01 04:07:00,
2013-05-01 00:12:00,50.8,46.1,30.22,NE,44,0.0,0.0,84,0.00,,BKN,0.00,WeatherDisplay:10.37,2013-05-01 04:12:00,
2013-05-01 00:17:00,50.5,46.2,30.22,NE,44,0.0,0.0,85,0.00,,BKN,0.00,WeatherDisplay:10.37,2013-05-01 04:17:00,
2013-05-01 00:22:00,50.2,45.6,30.22,NE,44,0.0,0.0,84,0.00,,BKN,0.00,WeatherDisplay:10.37,2013-05-01 04:22:00,
2013-05-01 00:27:00,49.8,44.8,30.22,NE,44,0.0,0.0,83,0.00,,BKN,0.00,WeatherDisplay:10.37,2013-05-01 04:27:00,
2013-05-01 00:32:00,49.4,44.5,30.22,NE,44,0.0,0.0,83,0.00,,BKN,0.00,WeatherDisplay:10.37,2013-05-01 04:32:00,
2013-05-01 00:37:00,49.3,44.0,30.22,NE,44,0.0,0.0,82,0.00,,BKN,0.00,WeatherDisplay:10.37,2013-05-01 04:37:00,
2013-05-01 00:42:00,49.3,44.0,30.22,NE,44,0.0,0.0,82,0.00,,BKN,0.00,WeatherDisplay:10.37,2013-05-01 04:42:00,
2013-05-01 00:47:00,49.5,44.6,30.22,NE,44,0.0,0.0,83,0.00,,BKN,0.00,WeatherDisplay:10.37,2013-05-01 04:47:00,
2013-05-01 00:52:00,49.3,44.0,30.22,NE,44,0.0,0.0,82,0.00,,BKN,0.00,WeatherDisplay:10.37,2013-05-01 04:52:00,
2013-05-01 00:57:00,49.1,43.8,30.23,NE,44,0.0,0.0,82,0.00,,BKN,0.00,WeatherDisplay:10.37,2013-05-01 04:57:00,
2013-05-01 01:02:00,49.1,43.5,30.22,NE,44,0.0,0.0,81,0.00,,BKN,0.00,WeatherDisplay:10.37,2013-05-01 05:02:00,
2013-05-01 01:07:00,49.0,43.7,30.22,NE,44,0.0,0.0,82,0.00,,BKN,0.00,WeatherDisplay:10.37,2013-05-01 05:07:00,
2013-05-01 01:12:00,48.8,44.2,30.22,NE,44,0.0,0.0,84,0.00,,BKN,0.00,WeatherDisplay:10.37,2013-05-01 05:12:00,
2013-05-01 01:17:00,48.4,44.4,30.22,NE,44,0.0,0.0,86,0.00,,BKN,0.00,WeatherDisplay:10.37,2013-05-01 05:17:00,
2013-05-01 01:22:00,48.2,43.9,30.22,NE,44,0.0,0.0,85,0.00,,BKN,0.00,WeatherDisplay:10.37,2013-05-01 05:22:00,
2013-05-01 01:27:00,48.3,43.7,30.22,NE,44,0.0,0.0,84,0.00,,BKN,0.00,WeatherDisplay:10.37,2013-05-01 05:27:00,
2013-05-01 01:32:00,48.3,43.1,30.22,NE,44,0.0,0.0,82,0.00,,BKN,0.00,WeatherDisplay:10.37,2013-05-01 05:32:00,
2013-05-01 01:37:00,48.1,42.2,30.22,NE,44,0.0,0.0,80,0.00,,BKN,0.00,WeatherDisplay:10.37,2013-05-01 05:37:00,
2013-05-01 01:42:00,48.0,41.8,30.22,NE,44,0.0,0.0,79,0.00,,BKN,0.00,WeatherDisplay:10.37,2013-05-01 05:42:00,
2013-05-01 01:47:00,47.9,41.7,30.22,NE,44,0.0,0.0,79,0.00,,BKN,0.00,WeatherDisplay:10.37,2013-05-01 05:47:00,
2013-05-01 01:52:00,47.6,41.4,30.22,NE,44,0.0,0.0,79,0.00,,BKN,0.00,WeatherDisplay:10.37,2013-05-01 05:52:00,
2013-05-01 01:57:00,47.2,41.7,30.22,NE,44,0.0,0.0,81,0.00,,BKN,0.00,WeatherDisplay:10.37,2013-05-01 05:57:00,
2013-05-01 02:02:00,46.5,41.3,30.22,NE,44,0.0,0.0,82,0.00,,BKN,0.00,WeatherDisplay:10.37,2013-05-01 06:02:00,
2013-05-01 02:07:00,46.0,41.1,30.22,NE,44,0.0,0.0,83,0.00,,BKN,0.00,WeatherDisplay:10.37,2013-05-01 06:07:00,
2013-05-01 02:12:00,45.6,41.7,30.22,NE,44,0.0,0.0,86,0.00,,BKN,0.00,WeatherDisplay:10.37,2013-05-01 06:12:00,
2013-05-01 02:17:00,45.5,41.9,30.22,NE,44,0.0,0.0,87,0.00,,BKN,0.00,WeatherDisplay:10.37,2013-05-01 06:17:00,
2013-05-01 02:22:00,45.5,41.6,30.22,NE,44,0.0,0.0,86,0.00,,BKN,0.00,WeatherDisplay:10.37,2013-05-01 06:22:00,
2013-05-01 02:27:00,45.6,41.0,30.22,NE,44,0.0,0.0,84,0.00,,BKN,0.00,WeatherDisplay:10.37,2013-05-01 06:27:00,
2013-05-01 02:32:00,45.7,40.5,30.22,NE,44,0.0,0.0,82,0.00,,BKN,0.00,WeatherDisplay:10.37,2013-05-01 06:32:00,
2013-05-01 02:37:00,45.7,40.2,30.22,NE,47,0.0,0.1,81,0.00,,BKN,0.00,WeatherDisplay:10.37,2013-05-01 06:37:00,
2013-05-01 02:42:00,45.8,39.7,30.22,NE,47,0.0,0.0,79,0.00,,BKN,0.00,WeatherDisplay:10.37,2013-05-01 06:42:00,
2013-05-01 02:47:00,46.0,39.5,30.22,NE,46,0.0,0.0,78,0.00,,BKN,0.00,WeatherDisplay:10.37,2013-05-01 06:47:00,
2013-05-01 02:52:00,46.0,39.2,30.22,NE,46,0.0,0.0,77,0.00,,BKN,0.00,WeatherDisplay:10.37,2013-05-01 06:52:00,
2013-05-01 02:57:00,46.0,39.2,30.22,NE,46,0.0,0.0,77,0.00,,BKN,0.00,WeatherDisplay:10.37,2013-05-01 06:57:00,
2013-05-01 03:02:00,46.1,39.0,30.22,NE,45,0.0,0.0,76,0.00,,BKN,0.00,WeatherDisplay:10.37,2013-05-01 07:02:00,
2013-05-01 03:07:00,46.1,39.0,30.22,NE,46,0.0,0.0,76,0.00,,BKN,0.00,WeatherDisplay:10.37,2013-05-01 07:07:00,
2013-05-01 03:12:00,46.1,39.0,30.22,NE,46,0.0,0.0,76,0.00,,BKN,0.00,WeatherDisplay:10.37,2013-05-01 07:12:00,
2013-05-01 03:17:00,45.9,38.8,30.22,NE,45,0.0,0.0,76,0.00,,BKN,0.00,WeatherDisplay:10.37,2013-05-01 07:17:00,
2013-05-01 03:22:00,45.7,38.9,30.22,NE,45,0.0,0.0,77,0.00,,BKN,0.00,WeatherDisplay:10.37,2013-05-01 07:22:00,
2013-05-01 03:27:00,45.4,38.9,30.23,NE,45,0.0,0.0,78,0.00,,BKN,0.00,WeatherDisplay:10.37,2013-05-01 07:27:00,
2013-05-01 03:32:00,45.1,39.0,30.23,NE,45,0.0,0.0,79,0.00,,BKN,0.00,WeatherDisplay:10.37,2013-05-01 07:32:00,
2013-05-01 03:37:00,45.0,39.8,30.23,NE,46,0.0,0.0,82,0.00,,BKN,0.00,WeatherDisplay:10.37,2013-05-01 07:37:00,
2013-05-01 03:42:00,45.1,39.6,30.23,NE,45,0.0,0.0,81,0.00,,BKN,0.00,WeatherDisplay:10.37,2013-05-01 07:42:00,
2013-05-01 03:47:00,45.3,39.8,30.23,NE,46,1.1,1.1,81,0.00,,BKN,0.00,WeatherDisplay:10.37,2013-05-01 07:47:00,
2013-05-01 03:52:00,45.3,39.2,30.23,NE,46,0.0,0.0,79,0.00,,BKN,0.00,WeatherDisplay:10.37,2013-05-01 07:52:00,
2013-05-01 03:57:00,45.2,38.7,30.23,NE,46,0.0,0.0,78,0.00,,BKN,0.00,WeatherDisplay:10.37,2013-05-01 07:57:00,
2013-05-01 04:02:00,45.1,38.6,30.23,NE,46,0.0,0.0,78,0.00,,BKN,0.00,WeatherDisplay:10.37,2013-05-01 08:02:00,
2013-05-01 04:07:00,44.8,38.0,30.23,NE,46,0.0,0.0,77,0.00,,BKN,0.00,WeatherDisplay:10.37,2013-05-01 08:07:00,
2013-05-01 04:12:00,44.7,37.9,30.23,NE,46,0.0,0.0,77,0.00,,BKN,0.00,WeatherDisplay:10.37,2013-05-01 08:12:00,
2013-05-01 04:17:00,44.6,37.8,30.23,ENE,68,0.0,0.0,77,0.00,,BKN,0.00,WeatherDisplay:10.37,2013-05-01 08:17:00,
2013-05-01 04:22:00,44.5,37.7,30.23,ENE,68,0.0,0.0,77,0.00,,BKN,0.00,WeatherDisplay:10.37,2013-05-01 08:22:00,
2013-05-01 04:27:00,44.4,37.6,30.23,ENE,68,0.0,0.0,77,0.00,,BKN,0.00,WeatherDisplay:10.37,2013-05-01 08:27:00,
2013-05-01 04:32:00,44.3,37.5,30.24,ENE,68,0.0,0.0,77,0.00,,BKN,0.00,WeatherDisplay:10.37,2013-05-01 08:32:00,
2013-05-01 04:37:00,44.0,37.9,30.24,ENE,68,0.0,0.0,79,0.00,,BKN,0.00,WeatherDisplay:10.37,2013-05-01 08:37:00,
2013-05-01 04:42:00,43.5,37.4,30.24,ENE,68,0.0,0.0,79,0.00,,BKN,0.00,WeatherDisplay:10.37,2013-05-01 08:42:00,
2013-05-01 04:47:00,43.0,37.3,30.24,ENE,68,0.0,0.0,80,0.00,,BKN,0.00,WeatherDisplay:10.37,2013-05-01 08:47:00,
2013-05-01 04:52:00,42.7,37.6,30.24,ENE,68,0.0,0.0,82,0.00,,BKN,0.00,WeatherDisplay:10.37,2013-05-01 08:52:00,
2013-05-01 04:57:00,42.4,37.6,30.24,ENE,68,0.0,0.0,83,0.00,,BKN,0.00,WeatherDisplay:10.37,2013-05-01 08:57:00,
2013-05-01 05:02:00,42.0,37.8,30.24,ENE,68,0.0,0.0,85,0.00,,BKN,0.00,WeatherDisplay:10.37,2013-05-01 09:02:00,
2013-05-01 05:07:00,41.7,37.5,30.24,ENE,68,0.0,0.0,85,0.00,,BKN,0.00,WeatherDisplay:10.37,2013-05-01 09:07:00,
2013-05-01 05:12:00,41.3,37.7,30.24,ENE,68,0.0,0.0,87,0.00,,BKN,0.00,WeatherDisplay:10.37,2013-05-01 09:12:00,
2013-05-01 05:17:00,41.6,38.0,30.24,ENE,68,0.0,0.0,87,0.00,,BKN,0.00,WeatherDisplay:10.37,2013-05-01 09:17:00,
2013-05-01 05:22:00,41.8,37.9,30.24,ENE,68,0.0,0.0,86,0.00,,BKN,0.00,WeatherDisplay:10.37,2013-05-01 09:22:00,
2013-05-01 05:27:00,41.9,37.7,30.24,ENE,68,0.0,0.0,85,0.00,,BKN,0.00,WeatherDisplay:10.37,2013-05-01 09:27:00,
2013-05-01 05:32:00,41.7,37.5,30.25,ENE,68,0.0,0.0,85,0.00,,BKN,0.00,WeatherDisplay:10.37,2013-05-01 09:32:00,
2013-05-01 05:37:00,41.5,37.3,30.25,ENE,68,0.0,0.0,85,0.00,,BKN,0.00,WeatherDisplay:10.37,2013-05-01 09:37:00,
2013-05-01 05:42:00,41.4,37.5,30.25,ENE,68,0.0,0.0,86,0.00,,BKN,0.00,WeatherDisplay:10.37,2013-05-01 09:42:00,
2013-05-01 05:47:00,41.6,37.7,30.25,ENE,68,0.0,0.0,86,0.00,,BKN,0.00,WeatherDisplay:10.37,2013-05-01 09:47:00,
2013-05-01 05:52:00,41.9,37.7,30.25,ESE,109,0.0,0.0,85,0.00,,BKN,0.00,WeatherDisplay:10.37,2013-05-01 09:52:00,
2013-05-01 05:57:00,42.3,37.8,30.25,ESE,108,0.0,0.0,84,0.00,,BKN,0.00,WeatherDisplay:10.37,2013-05-01 09:57:00,
2013-05-01 06:02:00,42.5,37.7,30.25,ENE,74,1.0,0.0,83,0.00,,BKN,0.00,WeatherDisplay:10.37,2013-05-01 10:02:00,
2013-05-01 06:07:00,42.7,37.9,30.25,ENE,74,0.0,0.0,83,0.00,,BKN,0.00,WeatherDisplay:10.37,2013-05-01 10:07:00,
2013-05-01 06:12:00,42.8,38.0,30.25,ENE,73,0.0,0.0,83,0.00,,BKN,0.00,WeatherDisplay:10.37,2013-05-01 10:12:00,
2013-05-01 06:17:00,42.9,37.8,30.26,East,96,2.3,2.3,82,0.00,,BKN,0.00,WeatherDisplay:10.37,2013-05-01 10:17:00,
2013-05-01 06:22:00,43.3,37.9,30.26,East,92,1.1,0.0,81,0.00,,BKN,0.00,WeatherDisplay:10.37,2013-05-01 10:22:00,
2013-05-01 06:27:00,43.7,37.9,30.26,ESE,111,2.3,2.3,80,0.00,,BKN,0.00,WeatherDisplay:10.37,2013-05-01 10:27:00,
2013-05-01 06:32:00,43.9,38.1,30.26,ENE,73,1.1,0.0,80,0.00,,BKN,0.00,WeatherDisplay:10.37,2013-05-01 10:32:00,
2013-05-01 06:37:00,43.9,38.1,30.27,ENE,65,0.0,0.0,80,0.00,,BKN,0.00,WeatherDisplay:10.37,2013-05-01 10:37:00,
2013-05-01 06:42:00,43.9,38.1,30.27,NE,44,0.0,0.0,80,0.00,,BKN,0.00,WeatherDisplay:10.37,2013-05-01 10:42:00,
2013-05-01 06:47:00,44.1,38.3,30.27,East,79,1.1,1.1,80,0.00,,BKN,0.00,WeatherDisplay:10.37,2013-05-01 10:47:00,
2013-05-01 06:52:00,44.3,38.5,30.27,ENE,78,0.0,0.0,80,0.00,,BKN,0.00,WeatherDisplay:10.37,2013-05-01 10:52:00,
2013-05-01 06:57:00,44.6,38.5,30.27,East,83,0.0,0.0,79,0.00,,BKN,0.00,WeatherDisplay:10.37,2013-05-01 10:57:00,
2013-05-01 07:02:00,45.0,38.2,30.27,East,96,3.5,3.5,77,0.00,,BKN,0.00,WeatherDisplay:10.37,2013-05-01 11:02:00,
2013-05-01 07:07:00,45.7,39.2,30.28,East,93,1.1,1.1,78,0.00,,BKN,0.00,WeatherDisplay:10.37,2013-05-01 11:07:00,
2013-05-01 07:12:00,46.5,39.0,30.28,ENE,71,1.1,1.1,75,0.00,,BKN,0.00,WeatherDisplay:10.37,2013-05-01 11:12:00,
2013-05-01 07:17:00,46.9,39.4,30.28,East,92,1.1,1.1,75,0.00,,BKN,0.00,WeatherDisplay:10.37,2013-05-01 11:17:00,
2013-05-01 07:22:00,47.2,39.7,30.28,NE,52,0.0,0.1,75,0.00,,BKN,0.00,WeatherDisplay:10.37,2013-05-01 11:22:00,
2013-05-01 07:27:00,47.5,40.0,30.29,ENE,66,1.1,0.0,75,0.00,,BKN,0.00,WeatherDisplay:10.37,2013-05-01 11:27:00,
2013-05-01 07:32:00,47.8,39.6,30.29,ENE,77,1.1,1.1,73,0.00,,BKN,0.00,WeatherDisplay:10.37,2013-05-01 11:32:00,
2013-05-01 07:37:00,48.4,39.8,30.29,NNE,31,2.3,2.3,72,0.00,,BKN,0.00,WeatherDisplay:10.37,2013-05-01 11:37:00,
2013-05-01 07:42:00,49.1,39.4,30.29,NNE,27,2.3,2.3,69,0.00,,BKN,0.00,WeatherDisplay:10.37,2013-05-01 11:42:00,
2013-05-01 07:47:00,49.8,39.7,30.29,East,101,1.1,0.0,68,0.00,,BKN,0.00,WeatherDisplay:10.37,2013-05-01 11:47:00,
2013-05-01 07:52:00,50.3,39.4,30.29,NE,56,1.1,1.1,66,0.00,,BKN,0.00,WeatherDisplay:10.37,2013-05-01 11:52:00,
2013-05-01 07:57:00,50.9,39.1,30.29,East,101,3.5,3.5,64,0.00,,BKN,0.00,WeatherDisplay:10.37,2013-05-01 11:57:00,
2013-05-01 08:02:00,51.4,39.2,30.29,ENE,62,2.3,2.3,63,0.00,,BKN,0.00,WeatherDisplay:10.37,2013-05-01 12:02:00,
2013-05-01 08:07:00,51.6,39.0,30.29,SE,126,2.3,2.3,62,0.00,,BKN,0.00,WeatherDisplay:10.37,2013-05-01 12:07:00,
2013-05-01 08:12:00,52.0,38.1,30.29,North,354,5.8,5.8,59,0.00,,BKN,0.00,WeatherDisplay:10.37,2013-05-01 12:12:00,
2013-05-01 08:17:00,52.2,38.7,30.29,NNE,13,2.3,2.3,60,0.00,,BKN,0.00,WeatherDisplay:10.37,2013-05-01 12:17:00,
2013-05-01 08:22:00,52.9,39.4,30.29,North,354,4.6,4.6,60,0.00,,BKN,0.00,WeatherDisplay:10.37,2013-05-01 12:22:00,
2013-05-01 08:27:00,53.4,40.3,30.29,ENE,71,1.1,1.1,61,0.00,,BKN,0.00,WeatherDisplay:10.37,2013-05-01 12:27:00,
2013-05-01 08:32:00,54.2,39.7,30.30,NNE,30,2.3,2.3,58,0.00,,BKN,0.00,WeatherDisplay:10.37,2013-05-01 12:32:00,
2013-05-01 08:37:00,54.9,40.8,30.29,ENE,68,6.0,6.0,59,0.00,,BKN,0.00,WeatherDisplay:10.37,2013-05-01 12:37:00,
2013-05-01 08:42:00,55.1,38.3,30.30,NNE,23,4.6,4.6,53,0.00,,BKN,0.00,WeatherDisplay:10.37,2013-05-01 12:42:00,
2013-05-01 08:47:00,55.2,37.9,30.30,ENE,63,4.0,4.0,52,0.00,,BKN,0.00,WeatherDisplay:10.37,2013-05-01 12:47:00,
2013-05-01 08:52:00,55.7,38.3,30.30,ENE,75,4.6,4.6,52,0.00,,BKN,0.00,WeatherDisplay:10.37,2013-05-01 12:52:00,
2013-05-01 08:57:00,56.0,38.1,30.30,NE,56,5.8,5.8,51,0.00,,BKN,0.00,WeatherDisplay:10.37,2013-05-01 12:57:00,
2013-05-01 09:02:00,56.5,38.1,30.30,NE,50,3.5,3.5,50,0.00,,BKN,0.00,WeatherDisplay:10.37,2013-05-01 13:02:00,
2013-05-01 09:07:00,56.8,37.8,30.30,ENE,67,3.5,3.5,49,0.00,,BKN,0.00,WeatherDisplay:10.37,2013-05-01 13:07:00,
2013-05-01 09:12:00,57.0,36.4,30.30,NE,54,4.6,4.6,46,0.00,,BKN,0.00,WeatherDisplay:10.37,2013-05-01 13:12:00,
2013-05-01 09:17:00,57.6,37.5,30.30,East,82,4.6,4.6,47,0.00,,BKN,0.00,WeatherDisplay:10.37,2013-05-01 13:17:00,
2013-05-01 09:22:00,58.0,38.4,30.30,NE,44,2.3,2.3,48,0.00,,BKN,0.00,WeatherDisplay:10.37,2013-05-01 13:22:00,
2013-05-01 09:27:00,58.6,38.4,30.30,NE,56,5.0,5.0,47,0.00,,BKN,0.00,WeatherDisplay:10.37,2013-05-01 13:27:00,
2013-05-01 09:32:00,59.1,38.9,30.30,East,93,3.5,3.5,47,0.00,,BKN,0.00,WeatherDisplay:10.37,2013-05-01 13:32:00,
2013-05-01 09:37:00,59.4,38.6,30.30,North,6,2.3,2.3,46,0.00,,BKN,0.00,WeatherDisplay:10.37,2013-05-01 13:37:00,
2013-05-01 09:42:00,59.7,37.2,30.30,ENE,68,6.9,6.9,43,0.00,,BKN,0.00,WeatherDisplay:10.37,2013-05-01 13:42:00,
2013-05-01 09:47:00,59.6,37.6,30.31,NNE,22,3.5,3.5,44,0.00,,BKN,0.00,WeatherDisplay:10.37,2013-05-01 13:47:00,
2013-05-01 09:52:00,59.9,37.3,30.30,NE,49,3.5,3.5,43,0.00,,BKN,0.00,WeatherDisplay:10.37,2013-05-01 13:52:00,
2013-05-01 09:57:00,60.2,38.2,30.30,ESE,107,3.5,3.5,44,0.00,,BKN,0.00,WeatherDisplay:10.37,2013-05-01 13:57:00,
2013-05-01 10:02:00,60.5,37.9,30.31,NNE,25,5.8,5.8,43,0.00,,BKN,0.00,WeatherDisplay:10.37,2013-05-01 14:02:00,
2013-05-01 10:07:00,60.6,36.1,30.31,NNW,338,3.5,3.5,40,0.00,,BKN,0.00,WeatherDisplay:10.37,2013-05-01 14:07:00,
2013-05-01 10:12:00,60.7,35.6,30.31,NE,50,4.6,4.6,39,0.00,,BKN,0.00,WeatherDisplay:10.37,2013-05-01 14:12:00,
2013-05-01 10:17:00,61.0,36.5,30.31,ESE,105,3.5,3.5,40,0.00,,BKN,0.00,WeatherDisplay:10.37,2013-05-01 14:17:00,
2013-05-01 10:22:00,61.5,37.6,30.31,NW,322,3.5,3.5,41,0.00,,BKN,0.00,WeatherDisplay:10.37,2013-05-01 14:22:00,
2013-05-01 10:27:00,61.7,37.7,30.31,SSE,154,2.3,2.3,41,0.00,,BKN,0.00,WeatherDisplay:10.37,2013-05-01 14:27:00,
2013-05-01 10:32:00,62.0,36.1,30.31,North,6,7.0,7.0,38,0.00,,BKN,0.00,WeatherDisplay:10.37,2013-05-01 14:32:00,
2013-05-01 10:37:00,61.4,35.5,30.31,North,4,4.6,4.6,38,0.00,,BKN,0.00,WeatherDisplay:10.37,2013-05-01 14:37:00,
2013-05-01 10:42:00,61.5,35.0,30.31,NNE,19,5.8,5.8,37,0.00,,BKN,0.00,WeatherDisplay:10.37,2013-05-01 14:42:00,
2013-05-01 10:47:00,61.7,35.1,30.32,North,8,7.0,7.0,37,0.00,,BKN,0.00,WeatherDisplay:10.37,2013-05-01 14:47:00,
2013-05-01 10:52:00,61.8,35.2,30.32,ENE,63,10.4,10.4,37,0.00,,BKN,0.00,WeatherDisplay:10.37,2013-05-01 14:52:00,
2013-05-01 10:57:00,62.0,35.4,30.32,NE,50,10.0,10.0,37,0.00,,BKN,0.00,WeatherDisplay:10.37,2013-05-01 14:57:00,
2013-05-01 11:02:00,62.0,34.0,30.32,North,11,6.9,6.9,35,0.00,,BKN,0.00,WeatherDisplay:10.37,2013-05-01 15:02:00,
2013-05-01 11:07:00,62.3,35.7,30.32,ENE,71,5.8,5.8,37,0.00,,BKN,0.00,WeatherDisplay:10.37,2013-05-01 15:07:00,
2013-05-01 11:12:00,62.5,35.9,30.32,NE,53,7.0,7.0,37,0.00,,BKN,0.00,WeatherDisplay:10.37,2013-05-01 15:12:00,
2013-05-01 11:17:00,62.8,35.4,30.31,ENE,78,8.1,8.1,36,0.00,,BKN,0.00,WeatherDisplay:10.37,2013-05-01 15:17:00,
2013-05-01 11:22:00,63.4,38.0,30.31,ENE,67,4.0,4.0,39,0.00,,BKN,0.00,WeatherDisplay:10.37,2013-05-01 15:22:00,
2013-05-01 11:27:00,63.2,34.3,30.31,North,354,3.5,3.5,34,0.00,,BKN,0.00,WeatherDisplay:10.37,2013-05-01 15:27:00,
2013-05-01 11:32:00,64.0,38.5,30.31,SW,231,2.3,2.3,39,0.00,,BKN,0.00,WeatherDisplay:10.37,2013-05-01 15:32:00,
2013-05-01 11:37:00,64.2,36.0,30.31,NE,36,1.1,1.1,35,0.00,,BKN,0.00,WeatherDisplay:10.37,2013-05-01 15:37:00,
2013-05-01 11:42:00,64.5,34.7,30.31,East,79,5.8,5.8,33,0.00,,BKN,0.00,WeatherDisplay:10.37,2013-05-01 15:42:00,
2013-05-01 11:47:00,64.5,37.6,30.31,SSW,205,2.3,2.3,37,0.00,,BKN,0.00,WeatherDisplay:10.37,2013-05-01 15:47:00,
2013-05-01 11:52:00,64.5,35.5,30.31,ENE,64,4.6,4.6,34,0.00,,BKN,0.00,WeatherDisplay:10.37,2013-05-01 15:52:00,
2013-05-01 11:57:00,64.5,35.5,30.31,NE,51,5.8,5.8,34,0.00,,BKN,0.00,WeatherDisplay:10.37,2013-05-01 15:57:00,
2013-05-01 12:02:00,64.6,34.8,30.31,NE,44,5.8,5.8,33,0.00,,BKN,0.00,WeatherDisplay:10.37,2013-05-01 16:02:00,
2013-05-01 12:07:00,64.8,39.2,30.31,SSW,204,2.3,2.3,39,0.00,,BKN,0.00,WeatherDisplay:10.37,2013-05-01 16:07:00,
2013-05-01 12:12:00,65.4,37.7,30.31,ENE,58,3.5,3.5,36,0.00,,BKN,0.00,WeatherDisplay:10.37,2013-05-01 16:12:00,
2013-05-01 12:17:00,66.0,36.1,30.31,SW,224,4.6,4.6,33,0.00,,BKN,0.00,WeatherDisplay:10.37,2013-05-01 16:17:00,
2013-05-01 12:22:00,66.2,37.7,30.31,WSW,237,6.9,6.9,35,0.00,,BKN,0.00,WeatherDisplay:10.37,2013-05-01 16:22:00,
2013-05-01 12:27:00,66.5,34.9,30.31,East,84,3.5,3.5,31,0.00,,BKN,0.00,WeatherDisplay:10.37,2013-05-01 16:27:00,
2013-05-01 12:32:00,66.2,34.7,30.30,SSE,167,5.8,5.8,31,0.00,,BKN,0.00,WeatherDisplay:10.37,2013-05-01 16:32:00,
2013-05-01 12:37:00,66.3,34.7,30.30,SE,143,3.5,3.5,31,0.00,,BKN,0.00,WeatherDisplay:10.37,2013-05-01 16:37:00,
2013-05-01 12:42:00,66.4,32.3,30.30,South,176,4.6,4.6,28,0.00,,BKN,0.00,WeatherDisplay:10.37,2013-05-01 16:42:00,
2013-05-01 12:47:00,66.3,35.5,30.30,South,179,10.4,10.4,32,0.00,,BKN,0.00,WeatherDisplay:10.37,2013-05-01 16:47:00,
2013-05-01 12:52:00,66.6,35.0,30.30,SW,214,5.8,5.8,31,0.00,,BKN,0.00,WeatherDisplay:10.37,2013-05-01 16:52:00,
2013-05-01 12:57:00,66.3,35.5,30.30,NE,44,5.8,5.8,32,0.00,,BKN,0.00,WeatherDisplay:10.37,2013-05-01 16:57:00,
2013-05-01 13:02:00,66.5,34.9,30.30,WSW,250,8.1,8.1,31,0.00,,BKN,0.00,WeatherDisplay:10.37,2013-05-01 17:02:00,
2013-05-01 13:07:00,66.8,36.0,30.30,SSW,193,3.5,3.5,32,0.00,,BKN,0.00,WeatherDisplay:10.37,2013-05-01 17:07:00,
2013-05-01 13:12:00,67.4,38.8,30.30,SSW,195,7.0,7.0,35,0.00,,BKN,0.00,WeatherDisplay:10.37,2013-05-01 17:12:00,
2013-05-01 13:17:00,67.2,34.7,30.30,NNE,16,9.2,9.2,30,0.00,,BKN,0.00,WeatherDisplay:10.37,2013-05-01 17:17:00,
2013-05-01 13:22:00,66.8,37.5,30.30,WSW,239,3.5,3.5,34,0.00,,BKN,0.00,WeatherDisplay:10.37,2013-05-01 17:22:00,
2013-05-01 13:27:00,66.8,36.8,30.30,SSW,212,3.5,3.5,33,0.00,,BKN,0.00,WeatherDisplay:10.37,2013-05-01 17:27:00,
2013-05-01 13:32:00,66.8,36.0,30.30,NNE,23,5.8,5.8,32,0.00,,BKN,0.00,WeatherDisplay:10.37,2013-05-01 17:32:00,
2013-05-01 13:37:00,67.4,36.5,30.30,ENE,71,7.0,7.0,32,0.00,,BKN,0.00,WeatherDisplay:10.37,2013-05-01 17:37:00,
2013-05-01 13:42:00,67.1,34.6,30.29,South,173,4.6,4.6,30,0.00,,BKN,0.00,WeatherDisplay:10.37,2013-05-01 17:42:00,
2013-05-01 13:47:00,67.3,38.7,30.29,SW,215,1.1,1.1,35,0.00,,BKN,0.00,WeatherDisplay:10.37,2013-05-01 17:47:00,
2013-05-01 13:52:00,68.4,36.6,30.29,NE,42,3.5,3.5,31,0.00,,BKN,0.00,WeatherDisplay:10.37,2013-05-01 17:52:00,
2013-05-01 13:57:00,68.2,35.6,30.29,NNE,27,3.5,3.5,30,0.00,,BKN,0.00,WeatherDisplay:10.37,2013-05-01 17:57:00,
2013-05-01 14:02:00,67.6,35.0,30.29,North,9,4.6,4.6,30,0.00,,BKN,0.00,WeatherDisplay:10.37,2013-05-01 18:02:00,
2013-05-01 14:07:00,67.2,34.7,30.29,East,79,8.1,8.1,30,0.00,,BKN,0.00,WeatherDisplay:10.37,2013-05-01 18:07:00,
2013-05-01 14:12:00,67.2,36.3,30.29,NE,40,5.8,5.8,32,0.00,,BKN,0.00,WeatherDisplay:10.37,2013-05-01 18:12:00,
2013-05-01 14:17:00,67.4,34.0,30.29,ENE,58,5.8,5.8,29,0.00,,BKN,0.00,WeatherDisplay:10.37,2013-05-01 18:17:00,
2013-05-01 14:22:00,67.5,38.1,30.29,SSE,150,2.3,2.3,34,0.00,,BKN,0.00,WeatherDisplay:10.37,2013-05-01 18:22:00,
2013-05-01 14:27:00,68.3,34.8,30.29,WNW,295,3.5,3.5,29,0.00,,BKN,0.00,WeatherDisplay:10.37,2013-05-01 18:27:00,
2013-05-01 14:32:00,68.0,36.2,30.29,NE,54,5.8,5.8,31,0.00,,BKN,0.00,WeatherDisplay:10.37,2013-05-01 18:32:00,
2013-05-01 14:37:00,68.0,34.5,30.28,SW,225,4.6,4.6,29,0.00,,BKN,0.00,WeatherDisplay:10.37,2013-05-01 18:37:00,
2013-05-01 14:42:00,67.8,35.2,30.28,ENE,57,5.8,5.8,30,0.00,,BKN,0.00,WeatherDisplay:10.37,2013-05-01 18:42:00,
2013-05-01 14:47:00,68.0,37.0,30.28,NNE,26,5.8,5.8,32,0.00,,BKN,0.00,WeatherDisplay:10.37,2013-05-01 18:47:00,
2013-05-01 14:52:00,68.0,40.0,30.28,ENE,67,3.5,3.5,36,0.00,,BKN,0.00,WeatherDisplay:10.37,2013-05-01 18:52:00,
2013-05-01 14:57:00,68.6,35.1,30.28,NE,34,5.8,5.8,29,0.00,,BKN,0.00,WeatherDisplay:10.37,2013-05-01 18:57:00,
2013-05-01 15:02:00,68.8,37.7,30.28,NNE,33,3.5,3.5,32,0.00,,BKN,0.00,WeatherDisplay:10.37,2013-05-01 19:02:00,
2013-05-01 15:07:00,68.6,33.3,30.29,NE,36,5.8,5.8,27,0.00,,BKN,0.00,WeatherDisplay:10.37,2013-05-01 19:07:00,
2013-05-01 15:12:00,68.0,31.8,30.28,WNW,284,3.5,3.5,26,0.00,,BKN,0.00,WeatherDisplay:10.37,2013-05-01 19:12:00,
2013-05-01 15:17:00,68.3,38.8,30.28,NNE,30,3.5,3.5,34,0.00,,BKN,0.00,WeatherDisplay:10.37,2013-05-01 19:17:00,
2013-05-01 15:22:00,68.2,32.9,30.28,North,7,4.6,4.6,27,0.00,,BKN,0.00,WeatherDisplay:10.37,2013-05-01 19:22:00,
2013-05-01 15:27:00,67.9,31.7,30.28,ENE,60,6.9,6.9,26,0.00,,BKN,0.00,WeatherDisplay:10.37,2013-05-01 19:27:00,
2013-05-01 15:32:00,67.8,31.6,30.28,ENE,78,3.5,3.5,26,0.00,,BKN,0.00,WeatherDisplay:10.37,2013-05-01 19:32:00,
2013-05-01 15:37:00,67.8,36.0,30.28,NNE,14,5.8,5.8,31,0.00,,BKN,0.00,WeatherDisplay:10.37,2013-05-01 19:37:00,
2013-05-01 15:42:00,68.2,36.4,30.28,SW,233,10.4,10.4,31,0.00,,BKN,0.00,WeatherDisplay:10.37,2013-05-01 19:42:00,
2013-05-01 15:47:00,68.3,37.3,30.28,NE,44,3.5,3.5,32,0.00,,BKN,0.00,WeatherDisplay:10.37,2013-05-01 19:47:00,
2013-05-01 15:52:00,67.9,32.7,30.28,NW,315,9.2,9.2,27,0.00,,BKN,0.00,WeatherDisplay:10.37,2013-05-01 19:52:00,
2013-05-01 15:57:00,68.1,34.6,30.28,NNW,333,3.5,3.5,29,0.00,,BKN,0.00,WeatherDisplay:10.37,2013-05-01 19:57:00,
2013-05-01 16:02:00,68.1,34.6,30.28,ENE,62,2.3,2.3,29,0.00,,BKN,0.00,WeatherDisplay:10.37,2013-05-01 20:02:00,
2013-05-01 16:07:00,68.4,36.6,30.28,North,5,3.5,3.5,31,0.00,,BKN,0.00,WeatherDisplay:10.37,2013-05-01 20:07:00,
2013-05-01 16:12:00,68.4,34.9,30.28,NE,55,5.8,5.8,29,0.00,,BKN,0.00,WeatherDisplay:10.37,2013-05-01 20:12:00,
2013-05-01 16:17:00,68.5,35.8,30.28,ENE,68,5.8,5.8,30,0.00,,BKN,0.00,WeatherDisplay:10.37,2013-05-01 20:17:00,
2013-05-01 16:22:00,68.3,36.5,30.28,NE,50,3.5,3.5,31,0.00,,BKN,0.00,WeatherDisplay:10.37,2013-05-01 20:22:00,
2013-05-01 16:27:00,68.2,33.8,30.28,ENE,58,3.5,3.5,28,0.00,,BKN,0.00,WeatherDisplay:10.37,2013-05-01 20:27:00,
2013-05-01 16:32:00,68.3,37.3,30.28,East,91,8.1,8.1,32,0.00,,BKN,0.00,WeatherDisplay:10.37,2013-05-01 20:32:00,
2013-05-01 16:37:00,68.4,37.4,30.28,ENE,71,3.5,3.5,32,0.00,,BKN,0.00,WeatherDisplay:10.37,2013-05-01 20:37:00,
2013-05-01 16:42:00,68.0,36.2,30.28,NE,44,5.8,5.8,31,0.00,,BKN,0.00,WeatherDisplay:10.37,2013-05-01 20:42:00,
2013-05-01 16:47:00,68.1,38.7,30.28,SSW,205,0.0,0.3,34,0.00,,BKN,0.00,WeatherDisplay:10.37,2013-05-01 20:47:00,
2013-05-01 16:52:00,67.8,37.6,30.29,NE,40,2.3,2.3,33,0.00,,BKN,0.00,WeatherDisplay:10.37,2013-05-01 20:52:00,
2013-05-01 16:57:00,67.7,37.5,30.29,SW,218,6.9,6.9,33,0.00,,BKN,0.00,WeatherDisplay:10.37,2013-05-01 20:57:00,
2013-05-01 17:02:00,67.6,37.5,30.29,South,169,3.5,3.5,33,0.00,,BKN,0.00,WeatherDisplay:10.37,2013-05-01 21:02:00,
2013-05-01 17:07:00,67.5,38.1,30.29,North,1,10.4,10.4,34,0.00,,BKN,0.00,WeatherDisplay:10.37,2013-05-01 21:07:00,
2013-05-01 17:12:00,67.5,37.4,30.29,South,173,3.5,3.5,33,0.00,,BKN,0.00,WeatherDisplay:10.37,2013-05-01 21:12:00,
2013-05-01 17:17:00,67.4,37.3,30.29,ENE,74,4.6,4.6,33,0.00,,BKN,0.00,WeatherDisplay:10.37,2013-05-01 21:17:00,
2013-05-01 17:22:00,67.1,37.0,30.29,SE,141,5.8,5.8,33,0.00,,BKN,0.00,WeatherDisplay:10.37,2013-05-01 21:22:00,
2013-05-01 17:27:00,66.9,37.6,30.29,SW,214,2.3,2.3,34,0.00,,BKN,0.00,WeatherDisplay:10.37,2013-05-01 21:27:00,
2013-05-01 17:32:00,67.0,38.4,30.29,SE,131,4.6,4.6,35,0.00,,BKN,0.00,WeatherDisplay:10.37,2013-05-01 21:32:00,
2013-05-01 17:37:00,66.9,37.6,30.29,ENE,73,3.5,3.5,34,0.00,,BKN,0.00,WeatherDisplay:10.37,2013-05-01 21:37:00,
2013-05-01 17:42:00,66.7,37.4,30.29,ENE,61,3.5,3.5,34,0.00,,BKN,0.00,WeatherDisplay:10.37,2013-05-01 21:42:00,
2013-05-01 17:47:00,66.6,36.6,30.29,ESE,120,4.6,4.6,33,0.00,,BKN,0.00,WeatherDisplay:10.37,2013-05-01 21:47:00,
2013-05-01 17:52:00,66.4,37.9,30.29,SSW,197,3.5,3.5,35,0.00,,BKN,0.00,WeatherDisplay:10.37,2013-05-01 21:52:00,
2013-05-01 17:57:00,66.5,38.0,30.29,South,188,3.5,3.5,35,0.00,,BKN,0.00,WeatherDisplay:10.37,2013-05-01 21:57:00,
2013-05-01 18:02:00,66.4,37.2,30.29,NNE,29,1.1,1.1,34,0.00,,BKN,0.00,WeatherDisplay:10.37,2013-05-01 22:02:00,
2013-05-01 18:07:00,66.2,37.0,30.29,SSW,203,9.0,9.0,34,0.00,,BKN,0.00,WeatherDisplay:10.37,2013-05-01 22:07:00,
2013-05-01 18:12:00,66.1,37.6,30.29,South,177,2.0,2.0,35,0.00,,BKN,0.00,WeatherDisplay:10.37,2013-05-01 22:12:00,
2013-05-01 18:17:00,66.0,37.5,30.29,ESE,110,2.3,2.3,35,0.00,,BKN,0.00,WeatherDisplay:10.37,2013-05-01 22:17:00,
2013-05-01 18:22:00,65.9,36.7,30.29,SW,215,4.6,4.6,34,0.00,,BKN,0.00,WeatherDisplay:10.37,2013-05-01 22:22:00,
2013-05-01 18:27:00,65.8,37.4,30.30,SE,143,2.3,2.3,35,0.00,,BKN,0.00,WeatherDisplay:10.37,2013-05-01 22:27:00,
2013-05-01 18:32:00,65.7,37.3,30.29,WSW,252,2.3,2.3,35,0.00,,BKN,0.00,WeatherDisplay:10.37,2013-05-01 22:32:00,
2013-05-01 18:37:00,65.6,36.5,30.29,SSW,195,3.5,3.5,34,0.00,,BKN,0.00,WeatherDisplay:10.37,2013-05-01 22:37:00,
2013-05-01 18:42:00,65.5,37.1,30.29,SSW,210,4.6,4.6,35,0.00,,BKN,0.00,WeatherDisplay:10.37,2013-05-01 22:42:00,
2013-05-01 18:47:00,65.4,37.0,30.29,NNE,29,4.6,4.6,35,0.00,,BKN,0.00,WeatherDisplay:10.37,2013-05-01 22:47:00,
2013-05-01 18:52:00,65.2,36.8,30.29,South,180,3.5,3.5,35,0.00,,BKN,0.00,WeatherDisplay:10.37,2013-05-01 22:52:00,
2013-05-01 18:57:00,65.2,36.8,30.29,SSE,168,3.5,3.5,35,0.00,,BKN,0.00,WeatherDisplay:10.37,2013-05-01 22:57:00,
2013-05-01 19:02:00,65.0,38.1,30.29,SSW,203,1.1,1.1,37,0.00,,BKN,0.00,WeatherDisplay:10.37,2013-05-01 23:02:00,
2013-05-01 19:07:00,64.7,37.1,30.29,SSE,159,1.1,1.1,36,0.00,,BKN,0.00,WeatherDisplay:10.37,2013-05-01 23:07:00,
2013-05-01 19:12:00,64.4,37.5,30.29,SSW,203,0.0,0.0,37,0.00,,BKN,0.00,WeatherDisplay:10.37,2013-05-01 23:12:00,
2013-05-01 19:17:00,64.2,36.7,30.29,SSE,167,3.5,3.5,36,0.00,,BKN,0.00,WeatherDisplay:10.37,2013-05-01 23:17:00,
2013-05-01 19:22:00,64.0,36.5,30.29,NNE,12,3.5,3.5,36,0.00,,BKN,0.00,WeatherDisplay:10.37,2013-05-01 23:22:00,
2013-05-01 19:27:00,63.9,37.1,30.29,South,170,3.5,3.5,37,0.00,,BKN,0.00,WeatherDisplay:10.37,2013-05-01 23:27:00,
2013-05-01 19:32:00,63.7,37.6,30.29,SSW,210,1.1,1.1,38,0.00,,BKN,0.00,WeatherDisplay:10.37,2013-05-01 23:32:00,
2013-05-01 19:37:00,63.4,37.3,30.29,SSW,203,1.1,0.0,38,0.00,,BKN,0.00,WeatherDisplay:10.37,2013-05-01 23:37:00,
2013-05-01 19:42:00,62.9,37.5,30.29,SSE,162,2.3,0.0,39,0.00,,BKN,0.00,WeatherDisplay:10.37,2013-05-01 23:42:00,
2013-05-01 19:47:00,62.4,37.1,30.29,NE,48,0.0,0.0,39,0.00,,BKN,0.00,WeatherDisplay:10.37,2013-05-01 23:47:00,
2013-05-01 19:52:00,62.0,36.7,30.29,SSW,204,0.0,0.0,39,0.00,,BKN,0.00,WeatherDisplay:10.37,2013-05-01 23:52:00,
2013-05-01 19:57:00,61.8,37.2,30.29,SW,224,0.0,0.0,40,0.00,,BKN,0.00,WeatherDisplay:10.37,2013-05-01 23:57:00,
2013-05-01 20:02:00,61.6,37.0,30.29,SW,225,0.0,0.0,40,0.00,,BKN,0.00,WeatherDisplay:10.37,2013-05-02 00:02:00,
2013-05-01 20:07:00,61.7,39.0,30.30,NE,51,8.1,8.1,43,0.00,,BKN,0.00,WeatherDisplay:10.37,2013-05-02 00:07:00,
2013-05-01 20:12:00,61.2,41.3,30.30,NE,47,5.8,5.8,48,0.00,,BKN,0.00,WeatherDisplay:10.37,2013-05-02 00:12:00,
2013-05-01 20:17:00,60.5,43.3,30.31,South,169,3.5,3.5,53,0.00,,BKN,0.00,WeatherDisplay:10.37,2013-05-02 00:17:00,
2013-05-01 20:22:00,60.0,44.7,30.31,SW,224,3.5,3.5,57,0.00,,BKN,0.00,WeatherDisplay:10.37,2013-05-02 00:22:00,
2013-05-01 20:27:00,59.5,46.0,30.31,NNE,32,5.0,5.0,61,0.00,,BKN,0.00,WeatherDisplay:10.37,2013-05-02 00:27:00,
2013-05-01 20:32:00,59.0,46.0,30.31,North,352,5.8,5.8,62,0.00,,BKN,0.00,WeatherDisplay:10.37,2013-05-02 00:32:00,
2013-05-01 20:37:00,58.7,46.5,30.31,NE,56,3.5,3.5,64,0.00,,BKN,0.00,WeatherDisplay:10.37,2013-05-02 00:37:00,
2013-05-01 20:42:00,58.3,46.6,30.32,WSW,252,3.5,3.5,65,0.00,,BKN,0.00,WeatherDisplay:10.37,2013-05-02 00:42:00,
2013-05-01 20:47:00,58.0,46.7,30.32,WSW,257,3.5,3.5,66,0.00,,BKN,0.00,WeatherDisplay:10.37,2013-05-02 00:47:00,
2013-05-01 20:52:00,57.6,46.3,30.32,WSW,237,4.6,4.6,66,0.00,,BKN,0.00,WeatherDisplay:10.37,2013-05-02 00:52:00,
2013-05-01 20:57:00,57.4,46.5,30.32,SSW,205,4.0,4.0,67,0.00,,BKN,0.00,WeatherDisplay:10.37,2013-05-02 00:57:00,
2013-05-01 21:02:00,57.0,46.5,30.32,South,180,3.5,0.0,68,0.00,,BKN,0.00,WeatherDisplay:10.37,2013-05-02 01:02:00,
2013-05-01 21:07:00,56.7,46.6,30.32,South,169,2.3,2.3,69,0.00,,BKN,0.00,WeatherDisplay:10.37,2013-05-02 01:07:00,
2013-05-01 21:12:00,56.5,46.8,30.33,ESE,122,3.5,3.5,70,0.00,,BKN,0.00,WeatherDisplay:10.37,2013-05-02 01:12:00,
2013-05-01 21:17:00,56.4,46.7,30.33,SW,224,1.1,1.1,70,0.00,,BKN,0.00,WeatherDisplay:10.37,2013-05-02 01:17:00,
2013-05-01 21:22:00,56.1,46.8,30.33,WSW,256,3.5,3.5,71,0.00,,BKN,0.00,WeatherDisplay:10.37,2013-05-02 01:22:00,
2013-05-01 21:27:00,56.0,47.1,30.34,SSW,193,1.1,1.1,72,0.00,,BKN,0.00,WeatherDisplay:10.37,2013-05-02 01:27:00,
2013-05-01 21:32:00,55.7,46.8,30.34,South,191,0.0,0.0,72,0.00,,BKN,0.00,WeatherDisplay:10.37,2013-05-02 01:32:00,
2013-05-01 21:37:00,55.5,46.6,30.34,South,181,2.3,2.3,72,0.00,,BKN,0.00,WeatherDisplay:10.37,2013-05-02 01:37:00,
2013-05-01 21:42:00,55.4,46.2,30.34,NE,56,3.5,3.5,71,0.00,,BKN,0.00,WeatherDisplay:10.37,2013-05-02 01:42:00,
2013-05-01 21:47:00,55.2,46.0,30.34,SE,131,1.1,1.2,71,0.00,,BKN,0.00,WeatherDisplay:10.37,2013-05-02 01:47:00,
2013-05-01 21:52:00,55.0,45.8,30.34,WSW,238,1.1,1.1,71,0.00,,BKN,0.00,WeatherDisplay:10.37,2013-05-02 01:52:00,
2013-05-01 21:57:00,54.9,45.7,30.34,NE,53,2.3,2.3,71,0.00,,BKN,0.00,WeatherDisplay:10.37,2013-05-02 01:57:00,
2013-05-01 22:02:00,54.6,45.4,30.34,ENE,60,0.0,0.0,71,0.00,,BKN,0.00,WeatherDisplay:10.37,2013-05-02 02:02:00,
2013-05-01 22:07:00,54.3,45.5,30.34,ENE,72,1.1,1.1,72,0.00,,BKN,0.00,WeatherDisplay:10.37,2013-05-02 02:07:00,
2013-05-01 22:12:00,54.3,45.5,30.34,ENE,57,8.1,8.1,72,0.00,,BKN,0.00,WeatherDisplay:10.37,2013-05-02 02:12:00,
2013-05-01 22:17:00,54.4,45.2,30.34,ENE,58,1.1,1.1,71,0.00,,BKN,0.00,WeatherDisplay:10.37,2013-05-02 02:17:00,
2013-05-01 22:22:00,54.4,45.2,30.34,NE,46,4.6,4.6,71,0.00,,BKN,0.00,WeatherDisplay:10.37,2013-05-02 02:22:00,
2013-05-01 22:27:00,54.4,45.2,30.34,ENE,77,3.5,3.5,71,0.00,,BKN,0.00,WeatherDisplay:10.37,2013-05-02 02:27:00,
2013-05-01 22:32:00,54.2,45.0,30.34,NNE,12,6.9,6.9,71,0.00,,BKN,0.00,WeatherDisplay:10.37,2013-05-02 02:32:00,
2013-05-01 22:37:00,53.9,45.1,30.34,South,174,2.3,2.3,72,0.00,,BKN,0.00,WeatherDisplay:10.37,2013-05-02 02:37:00,
2013-05-01 22:42:00,53.8,45.0,30.34,NE,43,1.1,1.1,72,0.00,,BKN,0.00,WeatherDisplay:10.37,2013-05-02 02:42:00,
2013-05-01 22:47:00,53.7,45.2,30.34,NNE,32,3.5,3.5,73,0.00,,BKN,0.00,WeatherDisplay:10.37,2013-05-02 02:47:00,
2013-05-01 22:52:00,53.5,45.1,30.34,NE,53,2.0,2.0,73,0.00,,BKN,0.00,WeatherDisplay:10.37,2013-05-02 02:52:00,
2013-05-01 22:57:00,53.2,44.8,30.33,NE,41,3.5,3.5,73,0.00,,BKN,0.00,WeatherDisplay:10.37,2013-05-02 02:57:00,
2013-05-01 23:02:00,53.2,44.8,30.33,ENE,57,4.0,4.0,73,0.00,,BKN,0.00,WeatherDisplay:10.37,2013-05-02 03:02:00,
2013-05-01 23:07:00,53.1,44.7,30.33,East,81,3.5,3.5,73,0.00,,BKN,0.00,WeatherDisplay:10.37,2013-05-02 03:07:00,
2013-05-01 23:12:00,53.0,44.2,30.33,NE,37,3.5,3.5,72,0.00,,BKN,0.00,WeatherDisplay:10.37,2013-05-02 03:12:00,
2013-05-01 23:17:00,52.9,44.1,30.33,ENE,60,1.1,1.1,72,0.00,,BKN,0.00,WeatherDisplay:10.37,2013-05-02 03:17:00,
2013-05-01 23:22:00,52.7,43.9,30.33,NE,46,3.5,3.5,72,0.00,,BKN,0.00,WeatherDisplay:10.37,2013-05-02 03:22:00,
2013-05-01 23:27:00,52.6,44.2,30.33,NNE,25,3.5,3.5,73,0.00,,BKN,0.00,WeatherDisplay:10.37,2013-05-02 03:27:00,
2013-05-01 23:32:00,52.5,44.1,30.33,NE,48,2.3,2.3,73,0.00,,BKN,0.00,WeatherDisplay:10.37,2013-05-02 03:32:00,
2013-05-01 23:37:00,52.3,43.9,30.33,NE,56,1.1,1.1,73,0.00,,BKN,0.00,WeatherDisplay:10.37,2013-05-02 03:37:00,
2013-05-01 23:42:00,52.0,44.0,30.34,NE,51,1.1,1.1,74,0.00,,BKN,0.00,WeatherDisplay:10.37,2013-05-02 03:42:00,
2013-05-01 23:47:00,51.7,43.7,30.34,ENE,71,2.3,2.3,74,0.00,,BKN,0.00,WeatherDisplay:10.37,2013-05-02 03:47:00,
2013-05-01 23:52:00,51.6,43.9,30.33,ENE,68,2.3,2.3,75,0.00,,BKN,0.00,WeatherDisplay:10.37,2013-05-02 03:52:00,
2013-05-01 23:57:00,51.5,43.8,30.33,ENE,63,1.1,1.1,75,0.00,,BKN,0.00,WeatherDisplay:10.37,2013-05-02 03:57:00,